Taunton, MA

1:20 PM EDT on June 29, 2017 (GMT -0400)
Taunton Municipal

Weather History for KTAN - March, 2013

Change the Weather History Date:

Tuesday, March 26, 2013

  Actual Average Record
Temperature  
Mean Temperature 41 °F -  
Max Temperature 51 °F 50 °F 70 °F (1949)
Min Temperature 34 °F 29 °F 6 °F (1960)
Degree Days  
Heating Degree Days 24    
Moisture  
Dew Point 26 °F    
Average Humidity 61    
Maximum Humidity 86    
Minimum Humidity 32    
Precipitation  
Precipitation 0.01 in - - ()
Sea Level Pressure  
Sea Level Pressure 29.62 in    
Wind  
Wind Speed 8 mph (NW)    
Max Wind Speed 13 mph    
Max Gust Speed 20 mph    
Visibility 10 miles    
Events Rain , Snow    
Averages and records for this station are not official NWS values.
T = Trace of Precipitation, MM = Missing Value Source: NWS Daily Summary

Daily Weather History Graph

Daily Weather History Graph

Search for Another Location

Airport or City:

Trip Planner

Search our weather history database for the weather conditions in past years. The results will help you decide how hot, cold, wet, or windy it might be!

Date:

Astronomy

Mar. 26, 2013 Rise Set
Actual Time 6:36 AM EDT 7:03 PM EDT
Civil Twilight 6:08 AM EDT 7:31 PM EDT
Nautical Twilight 5:36 AM EDT 8:04 PM EDT
Astronomical Twilight 5:02 AM EDT 8:38 PM EDT
Moon 6:36 PM EDT (3/26) 5:51 AM EDT (3/26)
Length of Visible Light 13h 22m
Length of Day
12h 26m
Waxing Gibbous, 99% of the Moon is Illuminated
Mar 26
Waxing Gibbous
Mar 27
Full
Apr 3
Last Quarter
Apr 10
New
Apr 18
First Quarter

Hourly Weather History & Observations

Time (EDT) Temp. Windchill Dew Point Humidity Pressure Visibility Wind Dir Wind Speed Gust Speed Precip Events Conditions
12:52 AM 37.9 °F 32.1 °F 30.0 °F 73% 29.49 in 10.0 mi North 8.1 mph 18.4 mph 0.00 in Rain Light Rain
1:22 AM 37.9 °F 32.7 °F 30.0 °F 73% 29.50 in 10.0 mi NNE 6.9 mph - 0.00 in   Overcast
1:52 AM 37.9 °F 32.7 °F 30.0 °F 73% 29.50 in 10.0 mi NE 6.9 mph - 0.00 in Rain Light Rain
2:45 AM 37.9 °F 32.1 °F 28.9 °F 70% 29.51 in 10.0 mi North 8.1 mph 19.6 mph 0.00 in   Overcast
2:52 AM 37.9 °F 31.5 °F 28.9 °F 70% 29.52 in 10.0 mi North 9.2 mph - 0.00 in   Overcast
3:17 AM 36.0 °F 29.6 °F 30.0 °F 79% 29.53 in 5.0 mi NNW 8.1 mph 17.3 mph 0.01 in Snow Light Snow
3:24 AM 35.1 °F 28.6 °F 30.9 °F 85% 29.53 in 7.0 mi NNW 8.1 mph - 0.01 in   Overcast
3:52 AM 36.0 °F 29.6 °F 30.9 °F 82% 29.54 in 9.0 mi North 8.1 mph - 0.01 in   Overcast
4:04 AM 36.0 °F 29.6 °F 30.9 °F 82% 29.54 in 10.0 mi North 8.1 mph - 0.00 in   Overcast
4:52 AM 36.0 °F 31.1 °F 32.0 °F 86% 29.55 in 10.0 mi NW 5.8 mph - 0.00 in Rain Light Rain
4:57 AM 36.0 °F 30.3 °F 32.0 °F 86% 29.55 in 8.0 mi NW 6.9 mph - 0.00 in Rain Light Rain
5:16 AM 35.1 °F 28.6 °F 30.9 °F 85% 29.56 in 10.0 mi NW 8.1 mph - 0.00 in   Overcast
5:31 AM 35.1 °F 29.3 °F 30.9 °F 85% 29.57 in 10.0 mi NW 6.9 mph - 0.00 in   Overcast
5:52 AM 35.1 °F 31.0 °F 30.0 °F 82% 29.58 in 10.0 mi NW 4.6 mph - 0.00 in   Overcast
6:52 AM 34.0 °F 28.0 °F 28.0 °F 79% 29.61 in 10.0 mi NW 6.9 mph - N/A   Overcast
7:52 AM 37.0 °F 31.6 °F 28.0 °F 70% 29.63 in 10.0 mi NW 6.9 mph - N/A   Overcast
8:52 AM 37.9 °F 30.9 °F 27.0 °F 65% 29.65 in 10.0 mi NNW 10.4 mph - N/A   Overcast
9:52 AM 41.0 °F 34.7 °F 24.1 °F 51% 29.67 in 10.0 mi NNW 10.4 mph - N/A   Overcast
10:52 AM 44.1 °F 40.1 °F 23.0 °F 43% 29.67 in 10.0 mi Variable 6.9 mph 19.6 mph N/A   Mostly Cloudy
11:52 AM 46.0 °F 41.0 °F 24.1 °F 42% 29.68 in 10.0 mi West 10.4 mph - N/A   Mostly Cloudy
12:52 PM 46.0 °F 42.5 °F 21.9 °F 39% 29.68 in 10.0 mi NW 6.9 mph - N/A   Overcast
1:52 PM 46.9 °F - 23.0 °F 39% 29.68 in 10.0 mi NW 8.1 mph 17.3 mph N/A   Overcast
2:52 PM 48.0 °F - 21.0 °F 34% 29.68 in 10.0 mi WNW 10.4 mph - N/A   Mostly Cloudy
3:52 PM 48.9 °F - 19.9 °F 32% 29.68 in 10.0 mi NW 12.7 mph 17.3 mph N/A   Mostly Cloudy
4:52 PM 48.0 °F - 21.9 °F 36% 29.69 in 10.0 mi WNW 5.8 mph 17.3 mph N/A   Overcast
5:52 PM 48.9 °F - 21.9 °F 35% 29.70 in 10.0 mi WSW 8.1 mph - N/A   Overcast
6:52 PM 46.0 °F 43.9 °F 19.9 °F 35% 29.73 in 10.0 mi WSW 4.6 mph - N/A   Overcast
7:52 PM 43.0 °F 40.3 °F 21.0 °F 42% 29.74 in 10.0 mi WSW 4.6 mph - N/A   Mostly Cloudy
8:52 PM 41.0 °F 38.0 °F 21.0 °F 45% 29.76 in 10.0 mi WSW 4.6 mph - N/A   Clear
9:52 PM 39.0 °F 35.7 °F 21.0 °F 49% 29.77 in 10.0 mi West 4.6 mph - N/A   Clear
11:52 PM 36.0 °F 32.1 °F 19.9 °F 52% 29.78 in 10.0 mi West 4.6 mph - N/A   Clear